Location: Unspecified
(0.0000°N, 0.0000°E)
Time: 06:50:56
(UTC+00:00)

Vanguard 2 Rocket - Pass Details

Date: 04 October 2023
Orbit: 552 x 3312 km, 32.9° (Epoch: 06 December)

Event Time Altitude Azimuth Distance (km) Brightness Sun altitude
Rises 12:11:28 0° 314° (NW) 6,621 11.3 82.9°
Reaches altitude 10° 12:17:57 10° 330° (NNW) 5,958 11.2 81.5°
Maximum altitude 12:30:41 20° 12° (NNE) 5,411 11.0 78.7°
Drops below altitude 10° 12:43:29 10° 53° (NE) 6,022 11.1 75.7°
Sets 12:50:00 0° 68° (ENE) 6,716 11.2 74.1°
